Flight Track Log - Related Links

Times and Time Zones

All times are in EDT time to prevent confusion due to time zone crossing. See the C-GONN flight status page for this flight to view local times or setup timezone preferences in your user account.


Time Position Orientation Groundspeed Altitude Reporting Facility
EDT Latitude Longitude Course Direction KTS MPH feet Rate Location/Type
Sat 11:49:31 PM 49.6333 -115.7667 270° West 150 173 10,000  Level Vancouver Center
Sat 11:50:31 PM 49.6500 -115.8167 297° West 140 161 11,800 1,800 Climbing Vancouver Center
Sat 11:51:31 PM 49.6500 -115.9000 270° West 160 184 13,600 1,850 Climbing Vancouver Center
Sat 11:52:00 PM 49.5334 -116.5188 270° West  Level FlightAware Approximate
Sat 11:52:31 PM 49.6500 -115.9833 270° West 160 184 15,500  Level Vancouver Center
Sat 11:53:00 PM 49.5335 -116.6280 270° West  Level FlightAware Approximate
Sat 11:53:31 PM 49.6500 -116.0333 270° West 160 184 16,900  Level Vancouver Center
Sat 11:54:00 PM 49.5335 -116.7372 270° West  Level FlightAware Approximate
Sat 11:54:31 PM 49.6500 -116.1000 270° West 170 196 18,600  Level Vancouver Center
Sat 11:55:00 PM 49.5334 -116.8463 270° West  Level FlightAware Approximate
Sat 11:55:31 PM 49.6500 -116.1833 270° West 180 207 19,800  Level Vancouver Center
Sat 11:56:31 PM 49.6500 -116.2667 270° West 180 207 21,000 1,000 Climbing Vancouver Center
Sat 11:57:31 PM 49.6500 -116.3333 270° West 190 219 21,800 750 Climbing Vancouver Center
Sat 11:58:31 PM 49.6500 -116.4500 270° West 200 230 22,500 750 Climbing Vancouver Center
Sat 11:59:31 PM 49.6500 -116.5167 270° West 210 242 23,300 750 Climbing Vancouver Center
Sun 12:00:31 AM 49.6500 -116.6167 270° West 210 242 24,000 350 Climbing Vancouver Center
Sun 12:01:31 AM 49.6500 -116.7333 270° West 230 265 24,000  Level Vancouver Center
Sun 12:02:31 AM 49.6500 -116.8000 270° West 240 276 24,000  Level Vancouver Center
Sun 12:03:31 AM 49.6500 -116.9333 270° West 260 299 24,000  Level Vancouver Center
Sun 12:04:31 AM 49.6500 -117.0333 270° West 270 311 24,000  Level Vancouver Center
Sun 12:05:31 AM 49.6500 -117.1667 270° West 270 311 24,000  Level Vancouver Center
Sun 12:06:31 AM 49.6500 -117.2667 270° West 270 311 24,000  Level Vancouver Center
Sun 12:07:31 AM 49.6500 -117.4000 270° West 270 311 24,000  Level Vancouver Center
Sun 12:08:31 AM 49.6500 -117.5000 270° West 270 311 24,000  Level Vancouver Center
Sun 12:09:31 AM 49.6333 -117.6333 259° West 280 322 24,000  Level Vancouver Center
Sun 12:10:31 AM 49.6500 -117.7333 284° West 280 322 24,000  Level Vancouver Center
Sun 12:11:31 AM 49.6333 -117.8667 259° West 280 322 24,000  Level Vancouver Center
Sun 12:12:31 AM 49.6333 -118.0000 270° West 280 322 24,000  Level Vancouver Center
Sun 12:13:31 AM 49.6333 -118.1333 270° West 280 322 24,000  Level Vancouver Center
Sun 12:14:31 AM 49.6333 -118.2333 270° West 280 322 24,000  Level Vancouver Center
Sun 12:15:31 AM 49.6333 -118.3500 270° West 280 322 24,000  Level Vancouver Center
Sun 12:16:31 AM 49.6333 -118.4833 270° West 280 322 24,000  Level Vancouver Center
Sun 12:17:31 AM 49.6167 -118.5833 256° West 280 322 24,000  Level Vancouver Center
Sun 12:18:31 AM 49.6333 -118.7167 281° West 280 322 24,000  Level Vancouver Center
Sun 12:19:31 AM 49.6333 -118.8500 270° West 280 322 24,000  Level Vancouver Center
Sun 12:20:31 AM 49.6167 -118.9500 256° West 280 322 24,000  Level Vancouver Center
Sun 12:21:31 AM 49.6167 -119.0833 270° West 280 322 24,000  Level Vancouver Center
Sun 12:22:31 AM 49.6167 -119.2167 270° West 280 322 24,000  Level Vancouver Center
Sun 12:23:31 AM 49.6167 -119.3167 270° West 280 322 24,000  Level Vancouver Center
Sun 12:24:31 AM 49.6000 -119.4500 259° West 280 322 24,000  Level Vancouver Center

Login

Don't have an account? Register now (free) for customized features, flight alerts, and more!